Time,TemperatureF,DewpointF,PressureIn,WindDirection,WindDirectionDegrees,WindSpeedMPH,WindSpeedGustMPH,Humidity,HourlyPrecipIn,Conditions,Clouds,dailyrainin,SoftwareType,DateUTC
2013-09-23 00:04:00,47.9,47.1,29.85,North,359,3.0,8.0,97,0.00,,CLR,0.00,VWS V14.00,2013-09-23 04:04:00,
2013-09-23 00:09:00,48.1,47.0,29.86,North,356,1.0,3.0,96,0.00,,CLR,0.00,VWS V14.00,2013-09-23 04:09:00,
2013-09-23 00:14:00,48.5,47.1,29.85,NNW,345,2.0,5.0,95,0.00,,CLR,0.00,VWS V14.00,2013-09-23 04:14:00,
2013-09-23 00:19:00,48.7,47.0,29.86,NNW,345,0.0,5.0,94,0.00,,CLR,0.00,VWS V14.00,2013-09-23 04:19:00,
2013-09-23 00:24:00,48.7,46.8,29.86,NNW,345,0.0,5.0,93,0.00,,CLR,0.00,VWS V14.00,2013-09-23 04:24:00,
2013-09-23 00:29:00,48.5,46.6,29.86,NNW,345,1.0,5.0,93,0.00,,CLR,0.00,VWS V14.00,2013-09-23 04:29:00,
2013-09-23 00:34:00,48.3,46.1,29.85,North,0,1.0,6.0,92,0.00,,CLR,0.00,VWS V14.00,2013-09-23 04:34:00,
2013-09-23 00:39:00,48.1,46.5,29.86,North,358,0.0,6.0,94,0.00,,CLR,0.00,VWS V14.00,2013-09-23 04:39:00,
2013-09-23 00:44:00,47.9,46.0,29.85,North,349,1.0,7.0,93,0.00,,CLR,0.00,VWS V14.00,2013-09-23 04:44:00,
2013-09-23 00:49:00,48.1,46.5,29.86,NNW,342,2.0,7.0,94,0.00,,CLR,0.00,VWS V14.00,2013-09-23 04:49:00,
2013-09-23 00:54:00,48.1,46.2,29.86,North,349,2.0,7.0,93,0.00,,CLR,0.00,VWS V14.00,2013-09-23 04:54:00,
2013-09-23 00:59:00,48.1,45.9,29.86,North,349,0.0,7.0,92,0.00,,CLR,0.00,VWS V14.00,2013-09-23 04:59:00,
2013-09-23 01:04:00,48.1,45.9,29.87,NW,316,1.0,6.0,92,0.00,,CLR,0.00,VWS V14.00,2013-09-23 05:04:00,
2013-09-23 01:09:00,47.9,45.4,29.87,NNW,342,1.0,7.0,91,0.00,,CLR,0.00,VWS V14.00,2013-09-23 05:09:00,
2013-09-23 01:14:00,47.9,45.4,29.86,North,0,2.0,7.0,91,0.00,,CLR,0.00,VWS V14.00,2013-09-23 05:14:00,
2013-09-23 01:19:00,47.9,45.1,29.87,NW,315,2.0,13.0,90,0.00,,CLR,0.00,VWS V14.00,2013-09-23 05:19:00,
2013-09-23 01:24:00,48.2,44.8,29.86,North,0,0.0,13.0,88,0.00,,CLR,0.00,VWS V14.00,2013-09-23 05:24:00,
2013-09-23 01:29:00,48.3,44.9,29.87,NNW,336,1.0,13.0,88,0.00,,CLR,0.00,VWS V14.00,2013-09-23 05:29:00,
2013-09-23 01:34:00,48.1,44.7,29.87,NW,316,0.0,5.0,88,0.00,,CLR,0.00,VWS V14.00,2013-09-23 05:34:00,
2013-09-23 01:39:00,47.8,44.4,29.86,NW,317,0.0,5.0,88,0.00,,CLR,0.00,VWS V14.00,2013-09-23 05:39:00,
2013-09-23 01:44:00,47.5,44.4,29.87,NW,317,2.0,5.0,89,0.00,,CLR,0.00,VWS V14.00,2013-09-23 05:44:00,
2013-09-23 01:49:00,47.1,44.3,29.87,NW,325,3.0,5.0,90,0.00,,CLR,0.00,VWS V14.00,2013-09-23 05:49:00,
2013-09-23 01:54:00,46.9,44.1,29.87,NW,317,1.0,5.0,90,0.00,,CLR,0.00,VWS V14.00,2013-09-23 05:54:00,
2013-09-23 01:59:00,46.8,44.0,29.87,NNW,333,0.0,6.0,90,0.00,,CLR,0.00,VWS V14.00,2013-09-23 05:59:00,
2013-09-23 02:04:00,46.6,43.8,29.87,NNW,333,0.0,5.0,90,0.00,,CLR,0.00,VWS V14.00,2013-09-23 06:04:00,
2013-09-23 02:09:00,46.5,43.7,29.87,NNW,333,0.0,5.0,90,0.00,,CLR,0.00,VWS V14.00,2013-09-23 06:09:00,
2013-09-23 02:14:00,46.5,43.7,29.87,NNW,333,0.0,5.0,90,0.00,,CLR,0.00,VWS V14.00,2013-09-23 06:14:00,
2013-09-23 02:19:00,46.3,43.5,29.87,NNW,333,0.0,5.0,90,0.00,,CLR,0.00,VWS V14.00,2013-09-23 06:19:00,
2013-09-23 02:24:00,46.1,43.3,29.87,NNW,333,1.0,5.0,90,0.00,,CLR,0.00,VWS V14.00,2013-09-23 06:24:00,
2013-09-23 02:29:00,45.9,43.4,29.87,NNW,333,1.0,5.0,91,0.00,,CLR,0.00,VWS V14.00,2013-09-23 06:29:00,
2013-09-23 02:34:00,45.8,43.3,29.88,NNW,333,1.0,3.0,91,0.00,,CLR,0.00,VWS V14.00,2013-09-23 06:34:00,
2013-09-23 02:39:00,45.8,43.3,29.87,NNW,333,0.0,3.0,91,0.00,,CLR,0.00,VWS V14.00,2013-09-23 06:39:00,
2013-09-23 02:44:00,45.6,43.1,29.87,NNW,333,1.0,3.0,91,0.00,,CLR,0.00,VWS V14.00,2013-09-23 06:44:00,
2013-09-23 02:49:00,45.5,43.0,29.87,NNW,338,0.0,6.0,91,0.00,,CLR,0.00,VWS V14.00,2013-09-23 06:49:00,
2013-09-23 02:54:00,45.3,42.8,29.87,NNW,338,0.0,6.0,91,0.00,,CLR,0.00,VWS V14.00,2013-09-23 06:54:00,
2013-09-23 02:59:00,45.2,42.7,29.87,NNW,342,0.0,6.0,91,0.00,,CLR,0.00,VWS V14.00,2013-09-23 06:59:00,
2013-09-23 03:04:00,45.2,42.7,29.88,NNW,341,0.0,4.0,91,0.00,,CLR,0.00,VWS V14.00,2013-09-23 07:04:00,
2013-09-23 03:09:00,45.0,42.5,29.88,NNW,341,0.0,4.0,91,0.00,,CLR,0.00,VWS V14.00,2013-09-23 07:09:00,
2013-09-23 03:14:00,44.8,42.6,29.88,NNW,341,0.0,4.0,92,0.00,,CLR,0.00,VWS V14.00,2013-09-23 07:14:00,
2013-09-23 03:19:00,44.7,42.5,29.87,NNW,341,0.0,4.0,92,0.00,,CLR,0.00,VWS V14.00,2013-09-23 07:19:00,
2013-09-23 03:24:00,44.5,42.3,29.87,NNW,341,0.0,4.0,92,0.00,,CLR,0.00,VWS V14.00,2013-09-23 07:24:00,
2013-09-23 03:29:00,44.4,42.2,29.88,NNW,341,0.0,4.0,92,0.00,,CLR,0.00,VWS V14.00,2013-09-23 07:29:00,
2013-09-23 03:34:00,44.3,42.1,29.88,NNW,341,0.0,0.0,92,0.00,,CLR,0.00,VWS V14.00,2013-09-23 07:34:00,
2013-09-23 03:39:00,44.1,42.2,29.88,NNW,341,0.0,1.0,93,0.00,,CLR,0.00,VWS V14.00,2013-09-23 07:39:00,
2013-09-23 03:44:00,43.8,41.9,29.87,NNW,340,0.0,4.0,93,0.00,,CLR,0.00,VWS V14.00,2013-09-23 07:44:00,
2013-09-23 03:49:00,43.7,42.1,29.88,NNW,340,0.0,4.0,94,0.00,,CLR,0.00,VWS V14.00,2013-09-23 07:49:00,
2013-09-23 03:54:00,43.5,42.2,29.88,NNW,340,0.0,4.0,95,0.00,,CLR,0.00,VWS V14.00,2013-09-23 07:54:00,
2013-09-23 03:59:00,43.5,42.2,29.88,NNW,340,1.0,4.0,95,0.00,,CLR,0.00,VWS V14.00,2013-09-23 07:59:00,
2013-09-23 04:04:00,43.5,42.4,29.88,NNW,340,0.0,3.0,96,0.00,,CLR,0.00,VWS V14.00,2013-09-23 08:04:00,
2013-09-23 04:09:00,43.5,42.4,29.88,NNW,340,0.0,3.0,96,0.00,,CLR,0.00,VWS V14.00,2013-09-23 08:09:00,
2013-09-23 04:14:00,43.4,42.1,29.89,NNW,340,0.0,3.0,95,0.00,,CLR,0.00,VWS V14.00,2013-09-23 08:14:00,
2013-09-23 04:19:00,43.4,42.3,29.88,NNW,340,0.0,3.0,96,0.00,,CLR,0.00,VWS V14.00,2013-09-23 08:19:00,
2013-09-23 04:24:00,43.4,42.3,29.88,NNW,340,0.0,3.0,96,0.00,,CLR,0.00,VWS V14.00,2013-09-23 08:24:00,
2013-09-23 04:29:00,43.3,42.2,29.88,NNW,340,2.0,3.0,96,0.00,,CLR,0.00,VWS V14.00,2013-09-23 08:29:00,
2013-09-23 04:34:00,43.2,42.1,29.88,NNW,340,0.0,2.0,96,0.00,,CLR,0.00,VWS V14.00,2013-09-23 08:34:00,
2013-09-23 04:39:00,43.2,42.4,29.88,NNW,340,0.0,3.0,97,0.00,,CLR,0.00,VWS V14.00,2013-09-23 08:39:00,
2013-09-23 04:44:00,43.2,42.1,29.89,NNW,340,0.0,3.0,96,0.00,,CLR,0.00,VWS V14.00,2013-09-23 08:44:00,
2013-09-23 04:49:00,43.4,42.6,29.89,NNW,342,0.0,5.0,97,0.00,,CLR,0.00,VWS V14.00,2013-09-23 08:49:00,
2013-09-23 04:54:00,43.5,42.7,29.88,WNW,302,0.0,5.0,97,0.00,,CLR,0.00,VWS V14.00,2013-09-23 08:54:00,
2013-09-23 04:59:00,43.4,42.6,29.89,WNW,302,0.0,5.0,97,0.00,,CLR,0.00,VWS V14.00,2013-09-23 08:59:00,
2013-09-23 05:04:00,43.4,42.6,29.89,WNW,302,0.0,0.0,97,0.00,,CLR,0.00,VWS V14.00,2013-09-23 09:04:00,
2013-09-23 05:09:00,43.3,42.5,29.90,NW,304,0.0,3.0,97,0.00,,CLR,0.00,VWS V14.00,2013-09-23 09:09:00,
2013-09-23 05:14:00,43.3,42.5,29.89,NW,305,0.0,3.0,97,0.00,,CLR,0.00,VWS V14.00,2013-09-23 09:14:00,
2013-09-23 05:19:00,43.1,42.3,29.88,NW,308,0.0,4.0,97,0.00,,CLR,0.00,VWS V14.00,2013-09-23 09:19:00,
2013-09-23 05:24:00,43.1,42.3,29.90,NW,308,0.0,4.0,97,0.00,,CLR,0.00,VWS V14.00,2013-09-23 09:24:00,
2013-09-23 05:29:00,43.1,42.0,29.90,NW,308,0.0,4.0,96,0.00,,CLR,0.00,VWS V14.00,2013-09-23 09:29:00,
2013-09-23 05:34:00,43.1,42.3,29.90,NW,308,0.0,1.0,97,0.00,,CLR,0.00,VWS V14.00,2013-09-23 09:34:00,
2013-09-23 05:39:00,43.0,41.9,29.90,NW,309,0.0,4.0,96,0.00,,CLR,0.00,VWS V14.00,2013-09-23 09:39:00,
2013-09-23 05:44:00,42.8,42.0,29.89,NW,309,1.0,4.0,97,0.00,,CLR,0.00,VWS V14.00,2013-09-23 09:44:00,
2013-09-23 05:49:00,42.8,42.0,29.90,NW,309,0.0,4.0,97,0.00,,CLR,0.00,VWS V14.00,2013-09-23 09:49:00,
2013-09-23 05:54:00,42.8,42.0,29.91,NW,309,0.0,4.0,97,0.00,,CLR,0.00,VWS V14.00,2013-09-23 09:54:00,
2013-09-23 05:59:00,42.8,42.0,29.91,NW,309,0.0,4.0,97,0.00,,CLR,0.00,VWS V14.00,2013-09-23 09:59:00,
2013-09-23 06:04:00,42.8,41.7,29.91,NW,311,3.0,4.0,96,0.00,,CLR,0.00,VWS V14.00,2013-09-23 10:04:00,
2013-09-23 06:09:00,42.8,41.7,29.91,NNW,336,2.0,6.0,96,0.00,,CLR,0.00,VWS V14.00,2013-09-23 10:09:00,
2013-09-23 06:14:00,42.8,42.0,29.91,NNW,346,0.0,6.0,97,0.00,,CLR,0.00,VWS V14.00,2013-09-23 10:14:00,
2013-09-23 06:19:00,42.8,41.7,29.91,NNW,344,0.0,6.0,96,0.00,,CLR,0.00,VWS V14.00,2013-09-23 10:19:00,
2013-09-23 06:24:00,42.7,41.6,29.91,NNW,342,3.0,6.0,96,0.00,,CLR,0.00,VWS V14.00,2013-09-23 10:24:00,
2013-09-23 06:29:00,42.7,41.6,29.91,NNW,331,0.0,6.0,96,0.00,,CLR,0.00,VWS V14.00,2013-09-23 10:29:00,
2013-09-23 06:34:00,42.8,41.7,29.91,North,350,1.0,6.0,96,0.00,,CLR,0.00,VWS V14.00,2013-09-23 10:34:00,
2013-09-23 06:39:00,42.8,41.7,29.92,North,350,0.0,6.0,96,0.00,,CLR,0.00,VWS V14.00,2013-09-23 10:39:00,
2013-09-23 06:44:00,42.8,41.7,29.91,North,352,0.0,6.0,96,0.00,,CLR,0.00,VWS V14.00,2013-09-23 10:44:00,
2013-09-23 06:49:00,42.8,41.7,29.92,NNW,342,1.0,6.0,96,0.00,,CLR,0.00,VWS V14.00,2013-09-23 10:49:00,
2013-09-23 06:54:00,42.8,41.7,29.92,NNW,348,0.0,6.0,96,0.00,,CLR,0.00,VWS V14.00,2013-09-23 10:54:00,
2013-09-23 06:59:00,42.7,41.4,29.92,NNW,342,0.0,6.0,95,0.00,,CLR,0.00,VWS V14.00,2013-09-23 10:59:00,
2013-09-23 07:04:00,43.0,41.7,29.92,NW,322,3.0,5.0,95,0.00,,CLR,0.00,VWS V14.00,2013-09-23 11:04:00,
2013-09-23 07:09:00,43.3,41.7,29.92,NNW,328,2.0,5.0,94,0.00,,CLR,0.00,VWS V14.00,2013-09-23 11:09:00,
2013-09-23 07:14:00,43.4,41.5,29.93,North,359,0.0,5.0,93,0.00,,CLR,0.00,VWS V14.00,2013-09-23 11:14:00,
2013-09-23 07:19:00,43.5,41.3,29.92,NNW,336,1.0,6.0,92,0.00,,CLR,0.00,VWS V14.00,2013-09-23 11:19:00,
2013-09-23 07:24:00,43.7,41.5,29.92,NNW,328,0.0,6.0,92,0.00,,CLR,0.00,VWS V14.00,2013-09-23 11:24:00,
2013-09-23 07:29:00,43.8,41.3,29.92,NNW,330,1.0,6.0,91,0.00,,CLR,0.00,VWS V14.00,2013-09-23 11:29:00,
2013-09-23 07:34:00,44.0,41.3,29.93,NNW,345,1.0,4.0,90,0.00,,CLR,0.00,VWS V14.00,2013-09-23 11:34:00,
2013-09-23 07:39:00,44.1,41.4,29.93,NNW,330,2.0,7.0,90,0.00,,CLR,0.00,VWS V14.00,2013-09-23 11:39:00,
2013-09-23 07:44:00,44.4,41.4,29.93,NNW,332,2.0,10.0,89,0.00,,CLR,0.00,VWS V14.00,2013-09-23 11:44:00,
2013-09-23 07:49:00,44.7,41.4,29.92,North,351,2.0,10.0,88,0.00,,CLR,0.00,VWS V14.00,2013-09-23 11:49:00,
2013-09-23 07:54:00,44.8,41.2,29.93,NNW,339,3.0,10.0,87,0.00,,CLR,0.00,VWS V14.00,2013-09-23 11:54:00,
2013-09-23 07:59:00,45.0,41.4,29.94,North,356,3.0,10.0,87,0.00,,CLR,0.00,VWS V14.00,2013-09-23 11:59:00,
2013-09-23 08:04:00,45.3,41.1,29.93,NW,322,1.0,10.0,85,0.00,,CLR,0.00,VWS V14.00,2013-09-23 12:04:00,
2013-09-23 08:09:00,45.5,41.0,29.94,NNW,346,4.0,10.0,84,0.00,,CLR,0.00,VWS V14.00,2013-09-23 12:09:00,
2013-09-23 08:14:00,45.6,41.4,29.93,WNW,295,1.0,10.0,85,0.00,,CLR,0.00,VWS V14.00,2013-09-23 12:14:00,
2013-09-23 08:19:00,45.9,41.0,29.94,North,349,4.0,15.0,83,0.00,,CLR,0.00,VWS V14.00,2013-09-23 12:19:00,
2013-09-23 08:24:00,46.1,41.2,29.95,NNW,340,6.0,15.0,83,0.00,,CLR,0.00,VWS V14.00,2013-09-23 12:24:00,
2013-09-23 08:29:00,46.2,41.3,29.93,WNW,285,4.0,15.0,83,0.00,,CLR,0.00,VWS V14.00,2013-09-23 12:29:00,
2013-09-23 08:34:00,46.5,41.6,29.94,WNW,288,2.0,7.0,83,0.00,,CLR,0.00,VWS V14.00,2013-09-23 12:34:00,
2013-09-23 08:39:00,46.6,41.7,29.94,North,357,7.0,11.0,83,0.00,,CLR,0.00,VWS V14.00,2013-09-23 12:39:00,
2013-09-23 08:44:00,46.9,41.4,29.93,NW,323,6.0,11.0,81,0.00,,CLR,0.00,VWS V14.00,2013-09-23 12:44:00,
2013-09-23 08:49:00,47.3,41.5,29.94,NNE,22,5.0,11.0,80,0.00,,CLR,0.00,VWS V14.00,2013-09-23 12:49:00,
2013-09-23 08:54:00,47.6,41.4,29.94,NNW,327,1.0,15.0,79,0.00,,CLR,0.00,VWS V14.00,2013-09-23 12:54:00,
2013-09-23 08:59:00,47.9,41.4,29.95,NNE,13,2.0,15.0,78,0.00,,CLR,0.00,VWS V14.00,2013-09-23 12:59:00,
2013-09-23 09:04:00,48.3,41.4,29.94,SSE,157,4.0,9.0,77,0.00,,CLR,0.00,VWS V14.00,2013-09-23 13:04:00,
2013-09-23 09:09:00,48.5,41.6,29.94,NNW,345,5.0,12.0,77,0.00,,CLR,0.00,VWS V14.00,2013-09-23 13:09:00,
2013-09-23 09:14:00,49.0,42.5,29.94,NNW,336,2.0,12.0,78,0.00,,CLR,0.00,VWS V14.00,2013-09-23 13:14:00,
2013-09-23 09:19:00,49.1,41.9,29.93,NNW,342,7.0,14.0,76,0.00,,CLR,0.00,VWS V14.00,2013-09-23 13:19:00,
2013-09-23 09:24:00,49.4,41.8,29.94,NNE,21,1.0,14.0,75,0.00,,CLR,0.00,VWS V14.00,2013-09-23 13:24:00,
2013-09-23 09:29:00,49.7,42.1,29.94,NE,52,1.0,14.0,75,0.00,,CLR,0.00,VWS V14.00,2013-09-23 13:29:00,
2013-09-23 09:34:00,50.1,42.5,29.94,North,5,7.0,9.0,75,0.00,,CLR,0.00,VWS V14.00,2013-09-23 13:34:00,
2013-09-23 09:39:00,50.4,42.4,29.94,ENE,63,5.0,13.0,74,0.00,,CLR,0.00,VWS V14.00,2013-09-23 13:39:00,
2013-09-23 09:44:00,50.6,42.3,29.93,NNE,31,5.0,13.0,73,0.00,,CLR,0.00,VWS V14.00,2013-09-23 13:44:00,
2013-09-23 09:49:00,50.9,42.9,29.93,NW,321,0.0,13.0,74,0.00,,CLR,0.00,VWS V14.00,2013-09-23 13:49:00,
2013-09-23 09:54:00,51.0,42.3,29.93,NNW,347,1.0,13.0,72,0.00,,CLR,0.00,VWS V14.00,2013-09-23 13:54:00,
2013-09-23 09:59:00,51.2,42.5,29.93,NNE,22,4.0,13.0,72,0.00,,CLR,0.00,VWS V14.00,2013-09-23 13:59:00,
2013-09-23 10:04:00,51.5,43.1,29.94,West,273,2.0,5.0,73,0.00,,CLR,0.00,VWS V14.00,2013-09-23 14:04:00,
2013-09-23 10:09:00,52.1,43.0,29.94,WNW,297,4.0,8.0,71,0.00,,CLR,0.00,VWS V14.00,2013-09-23 14:09:00,
2013-09-23 10:14:00,52.5,43.0,29.94,NE,41,2.0,10.0,70,0.00,,CLR,0.00,VWS V14.00,2013-09-23 14:14:00,
2013-09-23 10:19:00,52.5,43.0,29.93,East,91,1.0,10.0,70,0.00,,CLR,0.00,VWS V14.00,2013-09-23 14:19:00,
2013-09-23 10:24:00,52.8,43.7,29.93,NNW,327,10.0,10.0,71,0.00,,CLR,0.00,VWS V14.00,2013-09-23 14:24:00,
2013-09-23 10:29:00,52.9,43.0,29.93,NW,313,0.0,10.0,69,0.00,,CLR,0.00,VWS V14.00,2013-09-23 14:29:00,
2013-09-23 10:34:00,53.2,43.3,29.93,North,356,5.0,8.0,69,0.00,,CLR,0.00,VWS V14.00,2013-09-23 14:34:00,
2013-09-23 10:39:00,53.5,43.6,29.93,WSW,251,5.0,12.0,69,0.00,,CLR,0.00,VWS V14.00,2013-09-23 14:39:00,
2013-09-23 10:44:00,53.8,43.9,29.93,North,357,0.0,12.0,69,0.00,,CLR,0.00,VWS V14.00,2013-09-23 14:44:00,
2013-09-23 10:49:00,54.5,44.5,29.93,NNW,345,3.0,12.0,69,0.00,,CLR,0.00,VWS V14.00,2013-09-23 14:49:00,
2013-09-23 10:54:00,54.7,44.4,29.93,NNW,338,8.0,12.0,68,0.00,,CLR,0.00,VWS V14.00,2013-09-23 14:54:00,
2013-09-23 10:59:00,54.5,43.8,29.93,NNW,340,2.0,12.0,67,0.00,,CLR,0.00,VWS V14.00,2013-09-23 14:59:00,
2013-09-23 11:04:00,54.7,44.7,29.94,NW,320,6.0,12.0,69,0.00,,CLR,0.00,VWS V14.00,2013-09-23 15:04:00,
2013-09-23 11:09:00,55.3,45.3,29.93,NNW,347,1.0,12.0,69,0.00,,CLR,0.00,VWS V14.00,2013-09-23 15:09:00,
2013-09-23 11:14:00,55.3,44.2,29.93,WNW,301,4.0,12.0,66,0.00,,CLR,0.00,VWS V14.00,2013-09-23 15:14:00,
2013-09-23 11:19:00,55.4,44.2,29.93,WNW,295,4.0,12.0,66,0.00,,CLR,0.00,VWS V14.00,2013-09-23 15:19:00,
2013-09-23 11:24:00,56.3,45.1,29.93,NNW,331,8.0,12.0,66,0.00,,CLR,0.00,VWS V14.00,2013-09-23 15:24:00,
2013-09-23 11:29:00,56.2,44.2,29.93,NW,325,1.0,12.0,64,0.00,,CLR,0.00,VWS V14.00,2013-09-23 15:29:00,
2013-09-23 11:34:00,56.3,44.7,29.93,NW,311,1.0,5.0,65,0.00,,CLR,0.00,VWS V14.00,2013-09-23 15:34:00,
2013-09-23 11:39:00,56.9,46.1,29.93,North,0,0.0,7.0,67,0.00,,CLR,0.00,VWS V14.00,2013-09-23 15:39:00,
2013-09-23 11:44:00,57.8,46.5,29.94,NW,312,1.0,7.0,66,0.00,,CLR,0.00,VWS V14.00,2013-09-23 15:44:00,
2013-09-23 11:49:00,58.4,46.7,29.94,NNW,338,0.0,7.0,65,0.00,,CLR,0.00,VWS V14.00,2013-09-23 15:49:00,
2013-09-23 11:54:00,58.9,46.3,29.93,NNW,328,0.0,7.0,63,0.00,,CLR,0.00,VWS V14.00,2013-09-23 15:54:00,
2013-09-23 11:59:00,58.9,46.3,29.92,NW,304,3.0,7.0,63,0.00,,CLR,0.00,VWS V14.00,2013-09-23 15:59:00,
2013-09-23 12:04:00,58.7,46.6,29.93,WNW,297,0.0,6.0,64,0.00,,FEW030,0.00,VWS V14.00,2013-09-23 16:04:00,
2013-09-23 12:09:00,58.7,46.2,29.92,NNW,345,1.0,9.0,63,0.00,,FEW030,0.00,VWS V14.00,2013-09-23 16:09:00,
2013-09-23 12:14:00,58.4,46.3,29.93,NW,310,4.0,9.0,64,0.00,,FEW030,0.00,VWS V14.00,2013-09-23 16:14:00,
2013-09-23 12:19:00,58.6,46.5,29.93,WSW,238,1.0,9.0,64,0.00,,FEW030,0.00,VWS V14.00,2013-09-23 16:19:00,
2013-09-23 12:24:00,58.9,46.8,29.93,NNW,344,5.0,10.0,64,0.00,,FEW030,0.00,VWS V14.00,2013-09-23 16:24:00,
2013-09-23 12:29:00,59.2,47.0,29.93,WNW,292,1.0,10.0,64,0.00,,FEW030,0.00,VWS V14.00,2013-09-23 16:29:00,
2013-09-23 12:34:00,59.6,46.6,29.93,NNW,331,5.0,9.0,62,0.00,,FEW030,0.00,VWS V14.00,2013-09-23 16:34:00,
2013-09-23 12:39:00,59.5,46.5,29.93,ENE,60,3.0,13.0,62,0.00,,FEW030,0.00,VWS V14.00,2013-09-23 16:39:00,
2013-09-23 12:44:00,59.5,46.9,29.93,West,271,2.0,13.0,63,0.00,,FEW030,0.00,VWS V14.00,2013-09-23 16:44:00,
2013-09-23 12:49:00,59.2,46.6,29.94,NNW,330,1.0,13.0,63,0.00,,FEW030,0.00,VWS V14.00,2013-09-23 16:49:00,
2013-09-23 12:54:00,59.6,45.7,29.93,WNW,292,1.0,13.0,60,0.00,,FEW030,0.00,VWS V14.00,2013-09-23 16:54:00,
2013-09-23 12:59:00,59.7,46.7,29.93,NNW,338,1.0,13.0,62,0.00,,FEW030,0.00,VWS V14.00,2013-09-23 16:59:00,
2013-09-23 13:04:00,60.4,47.8,29.93,WNW,300,2.0,9.0,63,0.00,,CLR,0.00,VWS V14.00,2013-09-23 17:04:00,
2013-09-23 13:09:00,60.9,48.2,29.94,NNW,327,6.0,9.0,63,0.00,,CLR,0.00,VWS V14.00,2013-09-23 17:09:00,
2013-09-23 13:14:00,60.9,46.9,29.92,NNW,342,4.0,11.0,60,0.00,,CLR,0.00,VWS V14.00,2013-09-23 17:14:00,
2013-09-23 13:19:00,60.7,46.8,29.93,NNW,338,2.0,11.0,60,0.00,,CLR,0.00,VWS V14.00,2013-09-23 17:19:00,
2013-09-23 13:24:00,60.4,46.9,29.92,NNW,338,1.0,11.0,61,0.00,,CLR,0.00,VWS V14.00,2013-09-23 17:24:00,
2013-09-23 13:29:00,60.4,47.8,29.92,NNW,341,2.0,11.0,63,0.00,,CLR,0.00,VWS V14.00,2013-09-23 17:29:00,
2013-09-23 13:34:00,60.9,46.9,29.93,NW,315,1.0,10.0,60,0.00,,CLR,0.00,VWS V14.00,2013-09-23 17:34:00,
2013-09-23 13:39:00,61.2,48.1,29.92,NNW,337,4.0,10.0,62,0.00,,CLR,0.00,VWS V14.00,2013-09-23 17:39:00,
2013-09-23 13:44:00,61.5,47.5,29.92,North,354,7.0,10.0,60,0.00,,CLR,0.00,VWS V14.00,2013-09-23 17:44:00,
2013-09-23 13:49:00,61.2,47.7,29.93,West,276,1.0,10.0,61,0.00,,CLR,0.00,VWS V14.00,2013-09-23 17:49:00,
2013-09-23 13:54:00,61.8,48.2,29.92,ESE,119,3.0,10.0,61,0.00,,CLR,0.00,VWS V14.00,2013-09-23 17:54:00,
2013-09-23 13:59:00,62.2,48.6,29.93,North,353,3.0,12.0,61,0.00,,CLR,0.00,VWS V14.00,2013-09-23 17:59:00,
2013-09-23 14:04:00,61.8,46.9,29.92,NW,306,3.0,10.0,58,0.00,,CLR,0.00,VWS V14.00,2013-09-23 18:04:00,
2013-09-23 14:09:00,61.7,47.7,29.91,NNW,337,2.0,10.0,60,0.00,,CLR,0.00,VWS V14.00,2013-09-23 18:09:00,
2013-09-23 14:14:00,61.8,47.8,29.92,NNW,332,5.0,10.0,60,0.00,,CLR,0.00,VWS V14.00,2013-09-23 18:14:00,
2013-09-23 14:19:00,61.5,47.5,29.92,North,0,0.0,10.0,60,0.00,,CLR,0.00,VWS V14.00,2013-09-23 18:19:00,
2013-09-23 14:24:00,61.7,48.1,29.92,NE,55,1.0,10.0,61,0.00,,CLR,0.00,VWS V14.00,2013-09-23 18:24:00,
2013-09-23 14:29:00,61.2,47.7,29.92,WNW,300,0.0,12.0,61,0.00,,CLR,0.00,VWS V14.00,2013-09-23 18:29:00,
2013-09-23 14:34:00,61.8,48.2,29.92,NNW,329,2.0,4.0,61,0.00,,CLR,0.00,VWS V14.00,2013-09-23 18:34:00,
2013-09-23 14:39:00,62.3,48.2,29.92,NW,325,3.0,6.0,60,0.00,,CLR,0.00,VWS V14.00,2013-09-23 18:39:00,
2013-09-23 14:44:00,62.1,48.1,29.92,NNE,14,2.0,7.0,60,0.00,,CLR,0.00,VWS V14.00,2013-09-23 18:44:00,
2013-09-23 14:49:00,62.5,48.9,29.92,NW,310,1.0,7.0,61,0.00,,CLR,0.00,VWS V14.00,2013-09-23 18:49:00,
2013-09-23 14:54:00,62.6,48.5,29.93,NW,322,6.0,7.0,60,0.00,,CLR,0.00,VWS V14.00,2013-09-23 18:54:00,
2013-09-23 14:59:00,61.7,49.0,29.93,ENE,70,1.0,7.0,63,0.00,,CLR,0.00,VWS V14.00,2013-09-23 18:59:00,
2013-09-23 15:04:00,61.5,49.2,29.92,ENE,59,1.0,4.0,64,0.00,,SCT060,0.00,VWS V14.00,2013-09-23 19:04:00,
2013-09-23 15:09:00,61.0,48.8,29.92,WNW,301,5.0,5.0,64,0.00,,SCT060,0.00,VWS V14.00,2013-09-23 19:09:00,
2013-09-23 15:14:00,61.2,48.9,29.92,North,350,1.0,7.0,64,0.00,,SCT060,0.00,VWS V14.00,2013-09-23 19:14:00,
2013-09-23 15:19:00,61.2,48.1,29.92,WNW,301,2.0,8.0,62,0.00,,SCT060,0.00,VWS V14.00,2013-09-23 19:19:00,
2013-09-23 15:24:00,61.4,48.7,29.92,WNW,284,6.0,8.0,63,0.00,,SCT060,0.00,VWS V14.00,2013-09-23 19:24:00,
2013-09-23 15:29:00,60.8,47.3,29.93,NNE,24,0.0,11.0,61,0.00,,SCT060,0.00,VWS V14.00,2013-09-23 19:29:00,
2013-09-23 15:34:00,60.3,47.7,29.92,NW,325,2.0,5.0,63,0.00,,SCT060,0.00,VWS V14.00,2013-09-23 19:34:00,
2013-09-23 15:39:00,59.8,47.6,29.93,NNE,18,0.0,6.0,64,0.00,,SCT060,0.00,VWS V14.00,2013-09-23 19:39:00,
2013-09-23 15:44:00,59.5,48.2,29.92,North,0,2.0,6.0,66,0.00,,SCT060,0.00,VWS V14.00,2013-09-23 19:44:00,
2013-09-23 15:49:00,59.0,47.3,29.92,WNW,290,0.0,6.0,65,0.00,,SCT060,0.00,VWS V14.00,2013-09-23 19:49:00,
2013-09-23 15:54:00,59.3,47.5,29.91,NNE,13,1.0,8.0,65,0.00,,SCT060,0.00,VWS V14.00,2013-09-23 19:54:00,
2013-09-23 15:59:00,59.9,47.7,29.92,NW,321,3.0,8.0,64,0.00,,SCT060,0.00,VWS V14.00,2013-09-23 19:59:00,
2013-09-23 16:04:00,60.3,47.2,29.92,NW,320,2.0,9.0,62,0.00,,SCT060,0.00,VWS V14.00,2013-09-23 20:04:00,
2013-09-23 16:09:00,60.3,48.1,29.91,NE,34,5.0,9.0,64,0.00,,SCT060,0.00,VWS V14.00,2013-09-23 20:09:00,
2013-09-23 16:14:00,59.8,47.2,29.92,WNW,301,2.0,9.0,63,0.00,,SCT060,0.00,VWS V14.00,2013-09-23 20:14:00,
2013-09-23 16:19:00,59.5,47.7,29.92,NNW,332,7.0,9.0,65,0.00,,SCT060,0.00,VWS V14.00,2013-09-23 20:19:00,
2013-09-23 16:24:00,59.7,47.9,29.92,North,353,3.0,9.0,65,0.00,,SCT060,0.00,VWS V14.00,2013-09-23 20:24:00,
2013-09-23 16:29:00,59.9,48.1,29.92,NNE,30,3.0,10.0,65,0.00,,SCT060,0.00,VWS V14.00,2013-09-23 20:29:00,
2013-09-23 16:34:00,59.8,48.0,29.92,NE,56,0.0,8.0,65,0.00,,SCT060,0.00,VWS V14.00,2013-09-23 20:34:00,
2013-09-23 16:39:00,59.8,48.0,29.92,NW,321,2.0,8.0,65,0.00,,SCT060,0.00,VWS V14.00,2013-09-23 20:39:00,
2013-09-23 16:44:00,59.8,48.0,29.92,NW,320,2.0,8.0,65,0.00,,SCT060,0.00,VWS V14.00,2013-09-23 20:44:00,
2013-09-23 16:49:00,59.6,48.2,29.92,NW,317,0.0,8.0,66,0.00,,SCT060,0.00,VWS V14.00,2013-09-23 20:49:00,
2013-09-23 16:54:00,59.3,47.5,29.93,NNW,337,2.0,8.0,65,0.00,,SCT060,0.00,VWS V14.00,2013-09-23 20:54:00,
2013-09-23 16:59:00,59.3,48.8,29.92,NNW,337,0.0,8.0,68,0.00,,SCT060,0.00,VWS V14.00,2013-09-23 20:59:00,
2013-09-23 17:04:00,59.3,48.8,29.92,NNW,337,0.0,2.0,68,0.00,,CLR,0.00,VWS V14.00,2013-09-23 21:04:00,
2013-09-23 17:09:00,59.3,49.1,29.93,NNW,338,3.0,3.0,69,0.00,,CLR,0.00,VWS V14.00,2013-09-23 21:09:00,
2013-09-23 17:14:00,58.7,47.8,29.93,North,349,0.0,8.0,67,0.00,,CLR,0.00,VWS V14.00,2013-09-23 21:14:00,
2013-09-23 17:19:00,58.3,48.2,29.93,NNE,19,0.0,8.0,69,0.00,,CLR,0.00,VWS V14.00,2013-09-23 21:19:00,
2013-09-23 17:24:00,57.7,48.0,29.94,NNW,342,1.0,8.0,70,0.00,,CLR,0.00,VWS V14.00,2013-09-23 21:24:00,
2013-09-23 17:29:00,57.1,47.8,29.94,NNW,342,0.0,8.0,71,0.00,,CLR,0.00,VWS V14.00,2013-09-23 21:29:00,
2013-09-23 17:34:00,56.8,47.1,29.94,NNW,342,0.0,4.0,70,0.00,,CLR,0.00,VWS V14.00,2013-09-23 21:34:00,
2013-09-23 17:39:00,56.5,47.2,29.95,NNW,344,0.0,4.0,71,0.00,,CLR,0.00,VWS V14.00,2013-09-23 21:39:00,
2013-09-23 17:44:00,56.2,46.9,29.94,NNW,344,0.0,4.0,71,0.00,,CLR,0.00,VWS V14.00,2013-09-23 21:44:00,
2013-09-23 17:49:00,55.7,46.8,29.95,NNW,344,0.0,4.0,72,0.00,,CLR,0.00,VWS V14.00,2013-09-23 21:49:00,
2013-09-23 17:54:00,55.4,46.9,29.95,NNW,344,1.0,4.0,73,0.00,,CLR,0.00,VWS V14.00,2013-09-23 21:54:00,
2013-09-23 17:59:00,55.0,46.9,29.95,NNW,344,0.0,4.0,74,0.00,,CLR,0.00,VWS V14.00,2013-09-23 21:59:00,
2013-09-23 18:04:00,54.8,47.0,29.95,NNW,344,0.0,2.0,75,0.00,,SCT060,0.00,VWS V14.00,2013-09-23 22:04:00,
2013-09-23 18:09:00,54.4,47.0,29.96,NNW,344,0.0,2.0,76,0.00,,SCT060,0.00,VWS V14.00,2013-09-23 22:09:00,
2013-09-23 18:14:00,54.0,46.6,29.96,NNW,344,0.0,2.0,76,0.00,,SCT060,0.00,VWS V14.00,2013-09-23 22:14:00,
2013-09-23 18:19:00,53.8,46.8,29.95,NNW,344,0.0,2.0,77,0.00,,SCT060,0.00,VWS V14.00,2013-09-23 22:19:00,
2013-09-23 18:24:00,53.5,46.8,29.96,NNW,344,0.0,2.0,78,0.00,,SCT060,0.00,VWS V14.00,2013-09-23 22:24:00,
2013-09-23 18:29:00,53.2,46.5,29.95,NNW,344,0.0,2.0,78,0.00,,SCT060,0.00,VWS V14.00,2013-09-23 22:29:00,
2013-09-23 18:34:00,53.1,46.4,29.96,NNW,344,0.0,2.0,78,0.00,,SCT060,0.00,VWS V14.00,2013-09-23 22:34:00,
2013-09-23 18:39:00,52.8,46.8,29.96,NNW,344,0.0,2.0,80,0.00,,SCT060,0.00,VWS V14.00,2013-09-23 22:39:00,
2013-09-23 18:44:00,52.6,46.9,29.96,NNW,344,0.0,3.0,81,0.00,,SCT060,0.00,VWS V14.00,2013-09-23 22:44:00,
2013-09-23 18:49:00,52.2,46.9,29.97,NNW,344,0.0,3.0,82,0.00,,SCT060,0.00,VWS V14.00,2013-09-23 22:49:00,
2013-09-23 18:54:00,51.8,46.2,29.96,NNW,344,0.0,3.0,81,0.00,,SCT060,0.00,VWS V14.00,2013-09-23 22:54:00,
2013-09-23 18:59:00,51.6,46.3,29.97,NNW,344,0.0,3.0,82,0.00,,SCT060,0.00,VWS V14.00,2013-09-23 22:59:00,
2013-09-23 19:04:00,51.2,45.9,29.97,NNW,344,0.0,0.0,82,0.00,,CLR,0.00,VWS V14.00,2013-09-23 23:04:00,
2013-09-23 19:09:00,50.7,45.7,29.97,NNW,344,0.0,0.0,83,0.00,,CLR,0.00,VWS V14.00,2013-09-23 23:09:00,
2013-09-23 19:14:00,50.3,45.7,29.97,NNW,344,0.0,0.0,84,0.00,,CLR,0.00,VWS V14.00,2013-09-23 23:14:00,
2013-09-23 19:19:00,49.7,45.4,29.98,NNW,344,0.0,0.0,85,0.00,,CLR,0.00,VWS V14.00,2013-09-23 23:19:00,
2013-09-23 19:24:00,49.3,45.3,29.97,NNW,344,0.0,1.0,86,0.00,,CLR,0.00,VWS V14.00,2013-09-23 23:24:00,
2013-09-23 19:29:00,48.8,45.1,29.98,NNW,344,0.0,1.0,87,0.00,,CLR,0.00,VWS V14.00,2013-09-23 23:29:00,
2013-09-23 19:34:00,48.4,45.0,29.98,NNW,344,0.0,0.0,88,0.00,,CLR,0.00,VWS V14.00,2013-09-23 23:34:00,
2013-09-23 19:39:00,48.1,45.0,29.99,NNW,344,0.0,1.0,89,0.00,,CLR,0.00,VWS V14.00,2013-09-23 23:39:00,
2013-09-23 19:44:00,47.8,44.7,29.99,NNW,344,0.0,1.0,89,0.00,,CLR,0.00,VWS V14.00,2013-09-23 23:44:00,
2013-09-23 19:49:00,47.5,44.7,29.98,NNW,344,0.0,2.0,90,0.00,,CLR,0.00,VWS V14.00,2013-09-23 23:49:00,
2013-09-23 19:54:00,47.4,44.6,29.99,NNW,344,0.0,2.0,90,0.00,,CLR,0.00,VWS V14.00,2013-09-23 23:54:00,
2013-09-23 19:59:00,47.4,44.9,29.99,NNW,344,0.0,2.0,91,0.00,,CLR,0.00,VWS V14.00,2013-09-23 23:59:00,
2013-09-23 20:04:00,47.2,44.4,30.00,NNW,344,0.0,1.0,90,0.00,,CLR,0.00,VWS V14.00,2013-09-24 00:04:00,
2013-09-23 20:09:00,47.0,44.2,30.00,NNW,344,0.0,1.0,90,0.00,,CLR,0.00,VWS V14.00,2013-09-24 00:09:00,
2013-09-23 20:14:00,46.9,44.4,30.00,NNW,344,0.0,3.0,91,0.00,,CLR,0.00,VWS V14.00,2013-09-24 00:14:00,
2013-09-23 20:19:00,46.9,44.4,30.01,North,0,3.0,5.0,91,0.00,,CLR,0.00,VWS V14.00,2013-09-24 00:19:00,
2013-09-23 20:24:00,46.9,44.4,30.01,North,4,2.0,5.0,91,0.00,,CLR,0.00,VWS V14.00,2013-09-24 00:24:00,
2013-09-23 20:29:00,46.9,44.1,30.01,NNW,336,0.0,5.0,90,0.00,,CLR,0.00,VWS V14.00,2013-09-24 00:29:00,
2013-09-23 20:34:00,46.9,44.1,30.01,NNW,336,3.0,3.0,90,0.00,,CLR,0.00,VWS V14.00,2013-09-24 00:34:00,
2013-09-23 20:39:00,46.8,44.0,30.01,NNW,336,1.0,4.0,90,0.00,,CLR,0.00,VWS V14.00,2013-09-24 00:39:00,
2013-09-23 20:44:00,46.6,43.8,30.01,NNW,336,0.0,4.0,90,0.00,,CLR,0.00,VWS V14.00,2013-09-24 00:44:00,
2013-09-23 20:49:00,46.5,43.7,30.01,NNW,336,2.0,4.0,90,0.00,,CLR,0.00,VWS V14.00,2013-09-24 00:49:00,
2013-09-23 20:54:00,46.5,43.7,30.01,NNW,339,0.0,4.0,90,0.00,,CLR,0.00,VWS V14.00,2013-09-24 00:54:00,
2013-09-23 20:59:00,46.3,43.5,30.01,NNW,339,0.0,4.0,90,0.00,,CLR,0.00,VWS V14.00,2013-09-24 00:59:00,
2013-09-23 21:04:00,46.2,43.4,30.01,NNW,339,0.0,1.0,90,0.00,,CLR,0.00,VWS V14.00,2013-09-24 01:04:00,
2013-09-23 21:09:00,46.1,43.3,30.01,NNW,339,0.0,1.0,90,0.00,,CLR,0.00,VWS V14.00,2013-09-24 01:09:00,
2013-09-23 21:14:00,45.9,43.1,30.02,NNW,339,0.0,1.0,90,0.00,,CLR,0.00,VWS V14.00,2013-09-24 01:14:00,
2013-09-23 21:19:00,45.6,42.8,30.01,NNW,339,0.0,1.0,90,0.00,,CLR,0.00,VWS V14.00,2013-09-24 01:19:00,
2013-09-23 21:24:00,45.3,42.5,30.02,NNW,339,0.0,1.0,90,0.00,,CLR,0.00,VWS V14.00,2013-09-24 01:24:00,
2013-09-23 21:29:00,45.1,42.3,30.01,NNW,339,0.0,1.0,90,0.00,,CLR,0.00,VWS V14.00,2013-09-24 01:29:00,
2013-09-23 21:34:00,44.8,42.3,30.02,NNW,341,0.0,2.0,91,0.00,,CLR,0.00,VWS V14.00,2013-09-24 01:34:00,
2013-09-23 21:39:00,44.7,42.5,30.01,NNW,341,0.0,3.0,92,0.00,,CLR,0.00,VWS V14.00,2013-09-24 01:39:00,
2013-09-23 21:44:00,44.5,42.3,30.01,North,7,2.0,5.0,92,0.00,,CLR,0.00,VWS V14.00,2013-09-24 01:44:00,
2013-09-23 21:49:00,44.5,42.3,30.02,North,7,0.0,5.0,92,0.00,,CLR,0.00,VWS V14.00,2013-09-24 01:49:00,
2013-09-23 21:54:00,44.4,42.2,30.02,North,7,1.0,5.0,92,0.00,,CLR,0.00,VWS V14.00,2013-09-24 01:54:00,
2013-09-23 21:59:00,44.4,42.8,30.02,North,7,0.0,5.0,94,0.00,,CLR,0.00,VWS V14.00,2013-09-24 01:59:00,
2013-09-23 22:04:00,44.4,42.8,30.02,North,7,0.0,2.0,94,0.00,,CLR,0.00,VWS V14.00,2013-09-24 02:04:00,
2013-09-23 22:09:00,44.3,42.4,30.02,North,7,1.0,2.0,93,0.00,,CLR,0.00,VWS V14.00,2013-09-24 02:09:00,
2013-09-23 22:14:00,44.1,42.2,30.02,North,7,0.0,2.0,93,0.00,,CLR,0.00,VWS V14.00,2013-09-24 02:14:00,
2013-09-23 22:19:00,44.1,42.5,30.02,North,5,0.0,7.0,94,0.00,,CLR,0.00,VWS V14.00,2013-09-24 02:19:00,
2013-09-23 22:24:00,44.1,42.5,30.02,NNE,30,0.0,7.0,94,0.00,,CLR,0.00,VWS V14.00,2013-09-24 02:24:00,
2013-09-23 22:29:00,44.4,42.8,30.02,NNW,344,0.0,7.0,94,0.00,,CLR,0.00,VWS V14.00,2013-09-24 02:29:00,
2013-09-23 22:34:00,44.4,42.8,30.03,NNW,344,0.0,4.0,94,0.00,,CLR,0.00,VWS V14.00,2013-09-24 02:34:00,
2013-09-23 22:39:00,44.4,42.5,30.02,WNW,300,1.0,5.0,93,0.00,,CLR,0.00,VWS V14.00,2013-09-24 02:39:00,
2013-09-23 22:44:00,44.3,42.7,30.02,NW,306,1.0,5.0,94,0.00,,CLR,0.00,VWS V14.00,2013-09-24 02:44:00,
2013-09-23 22:49:00,44.2,42.3,30.02,NW,306,3.0,5.0,93,0.00,,CLR,0.00,VWS V14.00,2013-09-24 02:49:00,
2013-09-23 22:54:00,44.1,42.2,30.02,NW,307,1.0,5.0,93,0.00,,CLR,0.00,VWS V14.00,2013-09-24 02:54:00,
2013-09-23 22:59:00,44.1,42.5,30.02,NW,307,2.0,5.0,94,0.00,,CLR,0.00,VWS V14.00,2013-09-24 02:59:00,
2013-09-23 23:04:00,44.1,41.9,30.02,NW,307,2.0,2.0,92,0.00,,CLR,0.00,VWS V14.00,2013-09-24 03:04:00,
2013-09-23 23:09:00,44.1,42.2,30.02,NW,307,2.0,3.0,93,0.00,,CLR,0.00,VWS V14.00,2013-09-24 03:09:00,
2013-09-23 23:14:00,43.8,41.9,30.02,NW,308,2.0,4.0,93,0.00,,CLR,0.00,VWS V14.00,2013-09-24 03:14:00,
2013-09-23 23:19:00,44.0,42.1,30.01,NNW,345,3.0,6.0,93,0.00,,CLR,0.00,VWS V14.00,2013-09-24 03:19:00,
2013-09-23 23:24:00,44.1,41.9,30.01,NNW,345,0.0,6.0,92,0.00,,CLR,0.00,VWS V14.00,2013-09-24 03:24:00,
2013-09-23 23:29:00,44.0,41.8,30.01,NNW,345,0.0,6.0,92,0.00,,CLR,0.00,VWS V14.00,2013-09-24 03:29:00,
2013-09-23 23:34:00,43.8,41.6,30.01,NNW,345,0.0,3.0,92,0.00,,CLR,0.00,VWS V14.00,2013-09-24 03:34:00,
2013-09-23 23:39:00,43.5,41.6,30.01,NNW,345,0.0,3.0,93,0.00,,CLR,0.00,VWS V14.00,2013-09-24 03:39:00,
2013-09-23 23:44:00,43.4,41.5,30.01,NNW,345,0.0,3.0,93,0.00,,CLR,0.00,VWS V14.00,2013-09-24 03:44:00,
2013-09-23 23:49:00,43.2,41.6,30.01,NNW,345,0.0,3.0,94,0.00,,CLR,0.00,VWS V14.00,2013-09-24 03:49:00,
2013-09-23 23:54:00,43.4,41.5,30.01,NNW,328,0.0,5.0,93,0.00,,CLR,0.00,VWS V14.00,2013-09-24 03:54:00,
2013-09-23 23:59:00,43.5,41.3,30.01,NNW,329,0.0,5.0,92,0.00,,CLR,0.00,VWS V14.00,2013-09-24 03:59:00,